When you browse on this site, cookies collect data to enhance your experience and personalize the content and advertising you see.
Visit our Privacy Policy to learn more. By continuing to use the site, you agree to this use of cookies and data.
  • In Österreich
  • Länderverzeichnis
  • Für 7 Tage
  • Wassertemperatur
  • Wetterkarte
  • News
  • Widgets
  • user-avatar
    Anmelden

    Stündliche Wetter Albena

    Heute, 18 Oktober, Freitag

    Zeit Temperatur Niederschläge Wind Luftdruck Luftfeuchtigkeit
    00:00 +13°C° 0 mm 0 m/S 748 mmHg 88%
    01:00 +13°C° 0 mm 0 m/S 748 mmHg 88%
    02:00 +14°C° 0 mm 1 m/S 749 mmHg 86%
    03:00 +14°C° 0 mm 1 m/S 748 mmHg 85%
    04:00 +14°C° 0 mm 1 m/S 748 mmHg 84%
    05:00 +14°C° 0 mm 1 m/S 748 mmHg 83%
    06:00 +14°C° 0 mm 1 m/S 748 mmHg 79%
    07:00 +15°C° 0 mm 1 m/S 748 mmHg 75%
    08:00 +15°C° 0 mm 0 m/S 749 mmHg 71%
    09:00 +17°C° 0 mm 0 m/S 749 mmHg 64%
    10:00 +20°C° 0 mm 1 m/S 749 mmHg 58%
    11:00 +22°C° 0 mm 1 m/S 749 mmHg 51%
    12:00 +23°C° 0 mm 1 m/S 749 mmHg 49%
    13:00 +23°C° 0 mm 1 m/S 748 mmHg 48%
    14:00 +24°C° 0 mm 1 m/S 748 mmHg 46%
    15:00 +22°C° 0 mm 1 m/S 748 mmHg 53%
    16:00 +21°C° 0 mm 1 m/S 748 mmHg 59%
    17:00 +19°C° 0 mm 2 m/S 747 mmHg 66%
    18:00 +19°C° 0 mm 1 m/S 747 mmHg 71%
    19:00 +18°C° 0 mm 1 m/S 748 mmHg 76%
    20:00 +16°C° 0 mm 1 m/S 748 mmHg 81%
    21:00 +15°C° 0 mm 1 m/S 748 mmHg 82%
    22:00 +15°C° 0 mm 1 m/S 748 mmHg 84%
    23:00 +15°C° 0 mm 1 m/S 748 mmHg 85%

    Morgen, 19 Oktober, Samstag

    Zeit Temperatur Niederschläge Wind Luftdruck Luftfeuchtigkeit
    00:00 +15°C° 0 mm 1 m/S 748 mmHg 85%
    01:00 +15°C° 0 mm 1 m/S 748 mmHg 85%
    02:00 +13°C° 0 mm 0 m/S 748 mmHg 85%
    03:00 +13°C° 0 mm 0 m/S 748 mmHg 85%
    04:00 +13°C° 0 mm 0 m/S 748 mmHg 84%
    05:00 +13°C° 0 mm 0 m/S 748 mmHg 83%
    06:00 +14°C° 0 mm 0 m/S 748 mmHg 81%
    07:00 +14°C° 0 mm 0 m/S 748 mmHg 78%
    08:00 +16°C° 0 mm 1 m/S 749 mmHg 75%
    09:00 +19°C° 0 mm 1 m/S 749 mmHg 69%
    10:00 +20°C° 0 mm 1 m/S 749 mmHg 63%
    11:00 +21°C° 0 mm 2 m/S 749 mmHg 56%
    12:00 +23°C° 0 mm 2 m/S 749 mmHg 55%
    13:00 +23°C° 0 mm 2 m/S 749 mmHg 54%
    14:00 +23°C° 0 mm 2 m/S 748 mmHg 53%
    15:00 +21°C° 0 mm 2 m/S 748 mmHg 59%
    16:00 +20°C° 0 mm 2 m/S 748 mmHg 66%
    17:00 +18°C° 0 mm 2 m/S 748 mmHg 72%
    18:00 +18°C° 0 mm 2 m/S 748 mmHg 76%
    19:00 +17°C° 0 mm 2 m/S 748 mmHg 80%
    20:00 +16°C° 0 mm 2 m/S 749 mmHg 83%
    21:00 +16°C° 0 mm 2 m/S 749 mmHg 84%
    22:00 +15°C° 0 mm 2 m/S 749 mmHg 85%
    23:00 +15°C° 0 mm 1 m/S 749 mmHg 86%

    übermorgen, 20 Oktober, Sonntag

    Zeit Temperatur Niederschläge Wind Luftdruck Luftfeuchtigkeit
    00:00 +15°C° 0 mm 1 m/S 749 mmHg 86%
    01:00 +15°C° 0 mm 1 m/S 749 mmHg 86%
    02:00 +15°C° 0 mm 1 m/S 749 mmHg 86%
    03:00 +14°C° 0 mm 1 m/S 749 mmHg 86%
    04:00 +14°C° 0 mm 1 m/S 749 mmHg 86%
    05:00 +14°C° 0 mm 1 m/S 749 mmHg 86%
    06:00 +15°C° 0 mm 1 m/S 750 mmHg 83%
    07:00 +16°C° 0 mm 1 m/S 750 mmHg 81%
    08:00 +16°C° 0 mm 1 m/S 750 mmHg 78%
    09:00 +19°C° 0 mm 1 m/S 750 mmHg 71%
    10:00 +20°C° 0 mm 2 m/S 750 mmHg 64%
    11:00 +21°C° 0 mm 2 m/S 751 mmHg 56%
    12:00 +23°C° 0 mm 2 m/S 750 mmHg 55%
    13:00 +23°C° 0 mm 2 m/S 750 mmHg 53%
    14:00 +23°C° 0 mm 2 m/S 750 mmHg 52%
    15:00 +21°C° 0 mm 2 m/S 750 mmHg 58%
    16:00 +20°C° 0 mm 2 m/S 750 mmHg 63%
    17:00 +18°C° 0 mm 2 m/S 750 mmHg 69%
    18:00 +18°C° 0 mm 2 m/S 750 mmHg 72%
    19:00 +17°C° 0 mm 2 m/S 750 mmHg 76%
    20:00 +16°C° 0 mm 2 m/S 750 mmHg 80%
    21:00 +16°C° 0 mm 1 m/S 750 mmHg 81%
    22:00 +15°C° 0 mm 1 m/S 750 mmHg 83%
    23:00 +15°C° 0 mm 1 m/S 751 mmHg 84%

    21 Oktober, Montag

    Zeit Temperatur Niederschläge Wind Luftdruck Luftfeuchtigkeit
    00:00 +15°C° 0 mm 1 m/S 750 mmHg 84%
    01:00 +14°C° 0 mm 1 m/S 750 mmHg 84%
    02:00 +13°C° 0 mm 0 m/S 750 mmHg 83%
    03:00 +13°C° 0 mm 0 m/S 750 mmHg 83%
    04:00 +13°C° 0 mm 0 m/S 750 mmHg 82%
    05:00 +13°C° 0 mm 0 m/S 750 mmHg 82%
    06:00 +13°C° 0 mm 0 m/S 751 mmHg 78%
    07:00 +14°C° 0 mm 0 m/S 751 mmHg 74%
    08:00 +15°C° 0 mm 0 m/S 751 mmHg 70%
    09:00 +19°C° 0 mm 1 m/S 751 mmHg 63%
    10:00 +21°C° 0 mm 1 m/S 751 mmHg 56%
    11:00 +21°C° 0 mm 2 m/S 751 mmHg 49%
    12:00 +23°C° 0 mm 2 m/S 751 mmHg 48%
    13:00 +23°C° 0 mm 2 m/S 751 mmHg 46%
    14:00 +24°C° 0 mm 2 m/S 751 mmHg 45%
    15:00 +21°C° 0 mm 2 m/S 751 mmHg 51%
    16:00 +20°C° 0 mm 2 m/S 750 mmHg 57%
    17:00 +20°C° 0 mm 1 m/S 750 mmHg 63%
    18:00 +19°C° 0 mm 1 m/S 750 mmHg 66%
    19:00 +18°C° 0 mm 1 m/S 750 mmHg 70%
    20:00 +16°C° 0 mm 1 m/S 750 mmHg 73%
    21:00 +16°C° 0 mm 1 m/S 750 mmHg 74%
    22:00 +14°C° 0 mm 0 m/S 750 mmHg 74%
    23:00 +14°C° 0 mm 0 m/S 750 mmHg 75%

    22 Oktober, Dienstag

    Zeit Temperatur Niederschläge Wind Luftdruck Luftfeuchtigkeit
    00:00 +14°C° 0 mm 0 m/S 750 mmHg 75%
    01:00 +14°C° 0 mm 0 m/S 750 mmHg 75%
    02:00 +15°C° 0 mm 1 m/S 750 mmHg 76%
    03:00 +14°C° 0 mm 1 m/S 750 mmHg 75%
    04:00 +14°C° 0 mm 1 m/S 750 mmHg 75%
    05:00 +14°C° 0 mm 1 m/S 750 mmHg 74%
    06:00 +15°C° 0 mm 1 m/S 750 mmHg 70%
    07:00 +16°C° 0 mm 1 m/S 750 mmHg 66%
    08:00 +18°C° 0 mm 1 m/S 751 mmHg 62%
    09:00 +20°C° 0 mm 1 m/S 751 mmHg 55%
    10:00 +20°C° 0 mm 0 m/S 751 mmHg 49%
    11:00 +22°C° 0 mm 0 m/S 751 mmHg 42%
    12:00 +24°C° 0 mm 1 m/S 751 mmHg 41%
    13:00 +25°C° 0 mm 1 m/S 750 mmHg 39%
    14:00 +25°C° 0 mm 1 m/S 750 mmHg 38%
    15:00 +24°C° 0 mm 1 m/S 750 mmHg 44%
    16:00 +22°C° 0 mm 1 m/S 750 mmHg 51%
    17:00 +19°C° 0 mm 2 m/S 750 mmHg 57%
    18:00 +20°C° 0 mm 1 m/S 750 mmHg 60%
    19:00 +19°C° 0 mm 1 m/S 750 mmHg 63%
    20:00 +18°C° 0 mm 1 m/S 750 mmHg 66%
    21:00 +16°C° 0 mm 1 m/S 750 mmHg 66%
    22:00 +16°C° 0 mm 1 m/S 750 mmHg 66%
    23:00 +16°C° 0 mm 1 m/S 751 mmHg 66%

    23 Oktober, Mittwoch

    Zeit Temperatur Niederschläge Wind Luftdruck Luftfeuchtigkeit
    00:00 +16°C° 0 mm 1 m/S 751 mmHg 65%
    01:00 +16°C° 0 mm 1 m/S 751 mmHg 65%
    02:00 +15°C° 0 mm 2 m/S 751 mmHg 64%
    03:00 +15°C° 0 mm 2 m/S 751 mmHg 65%
    04:00 +15°C° 0 mm 2 m/S 751 mmHg 65%
    05:00 +15°C° 0 mm 2 m/S 751 mmHg 66%
    06:00 +14°C° 0 mm 3 m/S 751 mmHg 66%
    07:00 +16°C° 0 mm 3 m/S 751 mmHg 66%
    08:00 +16°C° 0 mm 3 m/S 751 mmHg 66%
    09:00 +18°C° 0 mm 3 m/S 751 mmHg 62%
    10:00 +19°C° 0 mm 4 m/S 752 mmHg 59%
    11:00 +21°C° 0 mm 4 m/S 752 mmHg 56%
    12:00 +21°C° 0 mm 5 m/S 751 mmHg 56%
    13:00 +22°C° 0 mm 5 m/S 751 mmHg 56%
    14:00 +22°C° 0 mm 5 m/S 751 mmHg 57%
    15:00 +21°C° 0 mm 5 m/S 751 mmHg 62%
    16:00 +19°C° 0 mm 5 m/S 751 mmHg 66%
    17:00 +17°C° 0 mm 5 m/S 751 mmHg 71%
    18:00 +16°C° 0 mm 5 m/S 751 mmHg 76%
    19:00 +15°C° 0 mm 4 m/S 751 mmHg 80%
    20:00 +14°C° 0 mm 4 m/S 751 mmHg 85%
    21:00 +14°C° 0 mm 3 m/S 751 mmHg 87%
    22:00 +13°C° 0 mm 3 m/S 751 mmHg 88%
    23:00 +13°C° 0 mm 3 m/S 751 mmHg 90%
    Mehr zeigen